Location: *
(37.4917°N, 71.5558°E)
Time: 03:04:54
(UTC+00:00)

Cosmos 2227 - Pass Details

Date: 09 April 2020
Orbit: 834 x 862 km, 71.0° (Epoch: 31 May)

Event Time Altitude Azimuth Distance (km) Brightness Sun altitude
Exits shadow 22:54:29 32° 193° (SSW) 1,398 5.0 -21.6°
Maximum altitude 22:57:11 80° 110° (ESE) 850 4.2 -21.1°
Drops below altitude 10° 23:02:48 10° 24° (NNE) 2,449 7.3 -20.1°
Sets 23:05:15 0° 24° (NNE) 3,387 8.2 -19.7°
